FENGYUN 2E

Last updated on Nov. 12, 2019, 4:18 a.m. UTC

1 33463U 08066A   19315.34257774 -.00000190  00000-0  00000+0 0  9997
2 33463   3.8907  68.9914 0004208 266.3683 284.9439  1.00270533 39926
UTC
Height (km)
Latitude
Longitude
Inclination
Orbital Period
UTC large
Height (km)
Speed (km/s)
/
Latitude / Longitude
Inclination (degrees)
Orbital Period (minutes)
Azimuth
Elevation
Range (km)
Doppler Factor
iOS Compass Heading
iOS Angle

Next 30 passes for location: Hong Kong

Rise time Rise Azimuth (degrees) Set time Set Azimuth (degrees) Duration Max altitude (degrees)

No matching passes for this satellites